Location: Étouvelles
(49.5207°N, 3.5808°E)
Time: 08:08:26
(UTC+00:00)

DELTA 2 DEB (DPAF) - Pass Details

Date: 03 February 2023
Orbit: 625 x 629 km, 98.4° (Epoch: 22 March)

Event Time Altitude Azimuth Distance (km) Brightness Sun altitude
Rises 17:51:40 0° 12° (NNE) 2,929 7.3 -11.2°
Reaches altitude 10° 17:53:52 10° 10° (N) 2,018 6.5 -11.5°
Maximum altitude 17:58:13 67° 289° (WNW) 689 4.5 -12.2°
Drops below altitude 10° 18:02:34 10° 207° (SSW) 2,009 7.2 -12.9°
Sets 18:04:45 0° 204° (SSW) 2,914 8.0 -13.3°
